Flag for Slovakia Weather past 2 weeks in Prievidza, Slovakia

Now
54 °F

Cool.


Feels Like: 54 °F
Forecast: 44 / 80 °F
Wind: 1 mph from Southwest

Location: Prievidza

Current Time: Jul 31, 2015 at 6:11:42 AM

Latest Report: Jul 31, 2015 at 5:00 AM


Visibility: 28 mi

Pressure: 30.02 "Hg

Humidity: 87%

Dew point: 50 °F

Location of PrievidzaLocation

Historic Weather in Prievidza — Graph

°F

Prievidza temperature yesterday

Maximum temperature yesterday: 76 °F (at 4:00 PM)
Minimum temperature yesterday: 56 °F (at 11:00 PM)
Average temperature yesterday: 66 °F

Past Weeks' High & Low Weather Summary

 TemperatureHumidityPressure
High98 °F (Jul 22, 4:00 PM)96% (Jul 28, 3:00 AM)30.14 "Hg (Jul 28, 3:00 AM)
Low51 °F (Jul 27, 5:00 AM)24% (Jul 18, 5:00 PM)29.65 "Hg (Jul 25, 6:00 PM)
Average74 °F62%29.88 "Hg
* Reported Jul 16 5:00 AM — Jul 31 5:00 AM, Prievidza, Weather by CustomWeather, © 2015

Note: Actual official high and low records may vary slightly from our data, if they occured in-between our weather recording intervals... More about our weather records

Advertising

Prievidza weather history for previous 24 hours

 ConditionsComfort  
Time TempWeatherWind HumidityBarometerVisibility
5:00 AM
Fri, Jul 31
54 °FCool.1 mph87%30.02 "Hg28 mi
4:00 AM54 °FCool.N/A82%30.01 "Hg31 mi
3:00 AM54 °FCool.N/A84%30.01 "Hg31 mi
2:00 AM52 °FCool.No wind88%30.01 "Hg31 mi
1:00 AM52 °FCool.N/A85%30.00 "Hg25 mi
11:00 PM
Thu, Jul 30
56 °FCool.No wind77%29.98 "Hg31 mi
10:00 PM58 °FPassing clouds.N/A71%29.96 "Hg31 mi
9:00 PM63 °FPassing clouds.2 mph57%29.94 "Hg31 mi
8:00 PM69 °FScattered clouds.2 mph40%29.91 "Hg28 mi
7:00 PM73 °FPassing clouds.3 mph33%29.89 "Hg22 mi
6:00 PM74 °FPassing clouds.5 mph36%29.88 "Hg25 mi
5:00 PM75 °FPassing clouds.5 mph34%29.88 "Hg22 mi
4:00 PM76 °FPassing clouds.6 mph36%29.88 "Hg25 mi
3:00 PM75 °FPassing clouds.5 mph36%29.88 "Hg25 mi
2:00 PM74 °FScattered clouds.6 mph33%29.90 "Hg25 mi
1:00 PM72 °FScattered clouds.6 mph40%29.91 "Hg25 mi
12:00 PM70 °FScattered clouds.5 mph38%29.91 "Hg25 mi
11:00 AM70 °FScattered clouds.N/A48%29.92 "Hg25 mi
10:00 AM65 °FPartly sunny.2 mph63%29.93 "Hg22 mi
9:00 AM64 °FPartly sunny.2 mph72%29.93 "Hg25 mi
8:00 AM63 °FPartly sunny.No wind80%29.90 "Hg19 mi
7:00 AM60 °FCool.N/A93%29.90 "Hg7 mi
Weather by CustomWeather, © 2015

See weather overviewHow to use our weather pages